Location: Belfast
(54.5830°N, 5.9330°W)
Time: 14:09:05
(UTC+01:00)

ISS - Pass Details

Date: 27 May 2017
Orbit: 402 x 408 km, 51.6° (Epoch: 26 May)

Event Time Altitude Azimuth Distance (km) Brightness Sun altitude
Rises 01:30:11 0° 270° (W) 2,334 0.0 -14.1°
Reaches altitude 10° 01:32:19 10° 264° (W) 1,471 -1.1 -14.1°
Maximum altitude 01:35:28 43° 192° (SSW) 580 -3.5 -14.1°
Drops below altitude 10° 01:38:37 10° 119° (ESE) 1,464 -1.2 -14.0°
Sets 01:40:44 0° 112° (ESE) 2,322 -0.2 -14.0°
